GW4890 Weather Reports


time (UTC)temp
F
wind
direction
speed
knots
gust
knots
rain 1hr
in
rain 24hr
in
rain mn
in
humidity
%
barometer
mb
20260504060145 50 343 7.8 15.6 0.02 0.44 0.00 54 1010.0
20260504050122 52 14 12.2 33.9 0.06 0.42 0.42 44 1009.3
20260504045122 52 344 12.2 28.7 0.00 0.36 0.36 43 1009.1
20260504044122 52 0 13.9 28.7 0.03 0.36 0.36 43 1009.0
20260504043143 52 359 14.8 37.4 0.03 0.36 0.36 44 1008.8
20260504042122 53 355 14.8 36.5 0.03 0.36 0.36 42 1008.5
20260504041124 53 23 11.3 29.5 0.14 0.36 0.36 43 1008.3
20260504040124 53 47 10.4 26.9 0.14 0.36 0.36 41 1008.3
20260504035123 53 58 11.3 27.8 0.14 0.36 0.36 38 1008.1
20260504034122 54 70 10.4 21.7 0.11 0.33 0.33 36 1007.7
20260504033122 54 77 11.3 26.9 0.11 0.33 0.33 36 1007.5
20260504032122 54 67 12.2 27.8 0.11 0.33 0.33 36 1007.2
20260504031123 55 83 8.7 20.0 0.00 0.22 0.22 35 1007.1
20260504030122 55 118 9.6 26.1 0.00 0.22 0.22 35 1007.1
20260504025123 56 71 10.4 26.1 0.00 0.22 0.22 35 1006.6
20260504024122 56 63 8.7 26.1 0.00 0.22 0.22 35 1006.5
20260504023124 57 98 6.1 19.1 0.00 0.22 0.22 34 1006.3
20260504022125 57 87 6.1 16.5 0.02 0.22 0.22 33 1006.3
20260504021123 58 90 7.8 19.1 0.04 0.22 0.22 33 1006.1
20260504020122 59 90 10.4 24.3 0.04 0.22 0.22 33 1006.1
20260504015122 59 65 11.3 26.1 0.04 0.22 0.22 32 1005.7
20260504014143 59 82 12.2 26.9 0.04 0.22 0.22 32 1005.4
20260504013122 60 90 11.3 27.8 0.04 0.22 0.22 31 1005.2
20260504012144 61 73 13.9 27.8 0.02 0.20 0.20 31 1004.9
20260504011123 63 65 10.4 22.6 0.00 0.18 0.18 31 1004.7
20260504010149 63 83 12.2 28.7 0.00 0.18 0.18 30 1004.7
20260504010143 63 81 12.2 28.7 0.00 0.18 0.18 30 1004.7
20260504005122 64 69 10.4 24.3 0.00 0.18 0.18 30 1004.7
20260504004122 64 54 11.3 25.2 0.00 0.18 0.18 30 1004.6
20260504003123 65 76 11.3 25.2 0.00 0.18 0.18 30 1004.5
20260504002122 66 2 11.3 27.8 0.00 0.18 0.18 29 1004.3
20260504001122 66 24 12.2 27.8 0.06 0.18 0.18 30 1004.2
20260504000122 67 12 13.0 34.8 0.07 0.18 0.18 29 1004.2
20260503235122 66 360 13.0 28.7 0.07 0.18 0.18 30 1004.1
20260503234122 66 47 13.0 34.8 0.07 0.18 0.18 30 1004.1
20260503233122 66 11 13.0 30.4 0.07 0.18 0.18 30 1004.0
20260503232122 66 22 13.0 31.3 0.07 0.18 0.18 29 1004.0
20260503231144 66 50 13.0 32.2 0.10 0.12 0.12 30 1004.0
20260503230123 67 67 12.2 28.7 0.11 0.11 0.11 28 1004.0
20260503225126 67 11 13.9 28.7 0.11 0.11 0.11 28 1004.0
20260503224122 67 7 13.0 32.2 0.11 0.11 0.11 29 1004.0
20260503223122 68 7 13.0 30.4 0.11 0.11 0.11 27 1003.9
20260503222122 69 87 13.0 27.8 0.11 0.11 0.11 26 1004.0
20260503221123 71 63 13.0 31.3 0.02 0.02 0.02 25 1003.9
20260503220122 72 74 11.3 27.8 0.00 0.00 0.00 24 1003.9
20260503215143 73 64 10.4 33.0 0.00 0.00 0.00 23 1003.9
20260503214143 72 61 9.6 27.8 0.00 0.00 0.00 23 1004.0
20260503213122 73 89 7.8 20.0 0.00 0.00 0.00 23 1004.0
20260503212122 73 28 9.6 23.5 0.00 0.00 0.00 23 1004.2
20260503211122 69 353 10.4 24.3 0.00 0.00 0.00 24 1004.3
20260503210122 73 62 7.8 17.4 0.00 0.00 0.00 22 1004.3
20260503205122 71 350 7.8 20.0 0.00 0.00 0.00 23 1004.4
20260503204122 69 68 7.0 16.5 0.00 0.00 0.00 24 1004.5
20260503203122 70 359 8.7 30.4 0.00 0.00 0.00 24 1004.6
20260503202122 69 355 10.4 25.2 0.00 0.00 0.00 24 1004.7
20260503201122 68 351 10.4 30.4 0.00 0.00 0.00 25 1004.9
20260503200122 70 30 9.6 22.6 0.00 0.00 0.00 24 1004.9
20260503195122 69 21 9.6 24.3 0.00 0.00 0.00 24 1005.0
20260503194143 69 33 8.7 24.3 0.00 0.00 0.00 25 1005.1
20260503193122 67 335 9.6 26.1 0.00 0.00 0.00 26 1005.4
20260503192123 67 348 10.4 27.8 0.00 0.00 0.00 27 1005.3
20260503191123 68 36 7.0 19.1 0.00 0.00 0.00 26 1005.5
20260503190123 68 342 8.7 24.3 0.00 0.00 0.00 25 1005.5
20260503185124 66 343 8.7 21.7 0.00 0.00 0.00 26 1005.5
20260503184124 66 341 12.2 25.2 0.00 0.00 0.00 26 1005.8
20260503183124 66 338 11.3 31.3 0.00 0.00 0.00 26 1005.9
20260503182124 65 329 11.3 25.2 0.00 0.00 0.00 26 1005.9
20260503181145 66 3 9.6 28.7 0.00 0.00 0.00 27 1006.0
20260503180124 65 337 13.0 33.0 0.00 0.00 0.00 28 1006.0
20260503175124 64 339 11.3 30.4 0.00 0.00 0.00 27 1006.1
20260503174124 65 53 10.4 26.1 0.00 0.00 0.00 27 1006.3
20260503173123 66 9 12.2 32.2 0.00 0.00 0.00 26 1006.4
20260503172124 64 320 15.6 33.9 0.00 0.00 0.00 28 1006.4
20260503171124 65 327 16.5 33.0 0.00 0.00 0.00 26 1006.5
20260503170124 66 326 13.0 28.7 0.00 0.00 0.00 25 1006.5
20260503160122 62 292 8.7 20.9 0.00 0.00 0.00 29 1006.9
20260503150123 56 309 7.0 17.4 0.00 0.00 0.00 37 1007.2
20260503140123 52 273 4.3 14.8 0.00 0.00 0.00 38 1007.3
20260503131123 48 272 6.1 12.2 0.00 0.00 0.00 41 1007.2
20260503130122 47 277 7.0 13.0 0.00 0.00 0.00 42 1007.2
20260503120122 47 279 9.6 19.1 0.00 0.00 0.00 40 1007.3
20260503110123 47 271 8.7 17.4 0.00 0.00 0.00 39 1007.6
20260503100123 48 285 8.7 17.4 0.00 0.00 0.00 38 1007.8
20260503090123 49 268 7.0 13.0 0.00 0.00 0.00 35 1007.7
20260503081122 49 291 7.8 16.5 0.00 0.00 0.00 36 1007.7
20260503080144 49 294 7.8 14.8 0.00 0.00 0.00 36 1007.7
20260503072123 47 315 5.2 11.3 0.00 0.00 0.00 41 1007.7
20260503071123 48 302 3.5 7.8 0.00 0.00 0.00 41 1007.7
20260503070143 48 288 3.5 7.8 0.00 0.00 0.00 39 1007.7